Location: La Haudelinière
(47.4918°N, 1.5015°W)
Time: 12:18:08
(UTC+00:00)

Daily predictions for brighter satellites

Satellite Brightness Start Highest point End
(mag) Time Altitude Azimuth Time Altitude Azimuth Time Altitude Azimuth
Cosmos 2074 Rocket 4.4 20:32:06 10° N 20:38:13 51° ENE 20:44:15 10° SSE
Cosmos 1833 Rocket 3.1 20:36:45 10° S 20:41:59 42° ESE 20:47:16 10° NE
Cosmos 1703 3.9 20:40:47 10° SSE 20:44:19 36° E 20:47:53 10° NNE
RESURS DK-1 2.4 20:50:32 10° NNW 20:54:41 84° WSW 20:58:49 10° SSE
Cosmos 2084 Rocket 3.6 20:59:15 10° NW 21:03:05 55° NE 21:06:56 11° SE
X-37B 1.1 21:01:21 10° W 21:03:58 36° SSW 21:06:14 13° SE
SL-8 R/B 4.1 21:01:14 10° WNW 21:05:54 53° SSW 21:10:19 11° SE
Helios 1A Rocket 3.4 21:03:01 10° SE 21:06:50 46° ENE 21:10:46 10° N
Cosmos 1271 Rocket 4.2 21:05:31 10° NNW 21:09:11 36° W 21:12:47 10° SSW
Cosmos 1741 Rocket 4.2 21:04:18 10° NNW 21:09:38 77° WSW 21:14:57 10° SSE
IRAS Rocket 4.2 21:05:31 10° NNE 21:11:09 80° ESE 21:16:41 10° SSW
Cosmos 2154 Rocket 4.1 21:05:05 10° N 21:11:16 63° ENE 21:17:21 10° SSE
Cosmos 1455 3.7 21:10:20 10° NNW 21:13:49 34° W 21:17:18 10° SSW
Ariane Rocket 3.6 21:10:44 10° S 21:15:43 55° W 21:20:44 10° NNW
Cosmos 1328 4.5 21:13:36 11° SSE 21:17:06 37° E 21:20:48 10° NNE
Cosmos 2082 Rocket 2.9 21:12:57 10° S 21:18:02 35° ESE 21:23:09 10° NE
Cosmos 2360 4.3 21:12:52 10° NNW 21:18:39 90° SSW 21:23:52 13° SSE
SPOT 3 Rocket 3.7 21:15:43 10° S 21:20:54 76° WSW 21:26:10 10° NNW
CZ-2C R/B 4.2 21:17:12 10° NNE 21:21:30 40° E 21:25:23 12° SSE
Cosmos 2228 2.9 21:19:03 10° N 21:23:18 89° E 21:27:18 11° S
Cosmos 1892 Rocket 4.4 21:21:09 14° SSE 21:24:23 32° E 21:28:18 10° NNE
Cosmos 967 Rocket 4.5 21:20:23 10° SSW 21:26:50 76° ESE 21:33:19 10° NE
USA 234 4.4 21:24:56 10° ENE 21:31:00 42° N 21:37:04 10° WNW
Resurs 01 Rocket 3.6 21:27:24 10° SSW 21:31:05 25° W 21:34:46 10° NW
Cosmos 2058 Rocket 4.1 21:27:17 10° N 21:31:20 33° ENE 21:34:19 16° SE
ATLAS 2AS CENTAUR R/B 4.4 21:27:38 10° WNW 21:33:00 24° WSW 21:38:07 10° SSW
Meteor 1-21 Rocket 4.2 21:31:35 10° S 21:37:11 86° E 21:42:57 10° NNE
CZ-4B R/B 3.7 21:37:34 10° NNW 21:39:48 20° WNW 21:42:01 10° WSW
Cosmos 1331 Rocket 4.2 21:35:29 10° SSW 21:40:47 78° WNW 21:46:07 10° NNE
SPOT 5 2.8 21:37:57 13° S 21:41:45 71° WSW 21:46:05 10° NNW
Cosmos 2184 Rocket 4.5 21:36:09 10° NNW 21:42:14 60° W 21:48:19 10° S
Terra 1.8 21:39:42 16° SSE 21:43:31 82° ENE 21:48:18 10° NNW
SJ 16-02 3.7 21:43:33 10° NNE 21:45:53 14° NE 21:48:13 10° E
Spot 2 Rocket 3.7 21:41:30 13° S 21:46:05 68° WSW 21:51:13 10° NNW
Cosmos 1892 3.6 21:44:17 20° SE 21:46:07 32° E 21:49:32 10° NNE
FALCON 9 DEB 3.7 21:44:14 10° WNW 21:47:27 52° NNE 21:50:08 14° E
ASTEX 1 4.0 21:51:01 10° NNE 21:55:48 43° E 21:58:45 21° SSE
Cosmos 1606 Rocket 3.9 21:52:30 10° NNW 21:56:48 63° W 22:00:09 16° S
USA 276 2.5 21:54:20 10° WNW 21:57:20 57° N 21:59:52 13° E
Cosmos 1697 Rocket 3.5 21:55:53 10° NW 22:01:10 43° WSW 22:05:32 15° S
Cosmos 1980 Rocket 2.2 21:55:50 10° NNW 22:01:34 81° WSW 22:05:29 21° SSE
ARIANE 5 R/B 2.6 21:58:45 21° SSE 22:01:44 89° W 22:06:11 10° NNW
GP-B 3.5 21:58:20 10° NNE 22:02:39 47° E 22:05:01 24° SSE
SL-16 R/B 3.3 21:57:36 10° NNW 22:02:46 35° NE 22:07:09 14° ESE
ERS-1 Rocket 3.6 22:02:19 14° S 22:06:28 51° W 22:11:23 10° NNW
Cosmos 2369 3.9 22:01:53 10° NNW 22:07:35 66° WSW 22:11:30 21° S
ATLAS 5 CENTAUR R/B 1.6 22:08:26 26° S 22:09:59 40° ESE 22:13:49 10° NE
Cosmos 2341 Rocket 4.0 22:04:50 10° N 22:11:11 83° E 22:15:35 21° SSE
Cosmos 1302 Rocket 4.0 22:06:51 10° SSW 22:12:03 83° WNW 22:17:17 10° NNE
COSMOS 2406 3.6 22:09:26 10° SW 22:15:10 68° WNW 22:20:56 10° NNE
In-Cosmos 22 Rocket 4.3 22:14:44 22° S 22:18:17 60° E 22:23:37 10° NNE
Cosmos 1726 Rocket 4.3 22:14:54 10° NNW 22:19:04 47° W 22:22:00 18° SSW
Cosmos 1408 2.5 22:19:29 25° SSW 22:21:20 76° W 22:24:47 10° N
Okean 1-7 Rocket 3.9 22:19:49 28° SSE 22:21:56 52° E 22:26:19 10° NNE
Cosmos 968 Rocket 3.9 22:18:13 10° NNW 22:23:18 55° WSW 22:26:32 22° S
Cosmos 1869 3.5 22:21:22 10° N 22:25:14 56° ENE 22:26:47 32° SE
Cosmos 1833 Rocket 4.2 22:20:50 10° WSW 22:25:59 36° NW 22:31:11 10° NNE
Cosmos 1825 2.2 22:28:50 36° SSE 22:30:08 59° E 22:33:50 10° NNE
Meteor 1-27 4.2 22:26:15 10° N 22:31:51 80° ENE 22:35:01 27° SSE
Cosmos 1812 Rocket 4.2 22:33:01 10° N 22:37:19 45° ENE 22:39:08 29° SE
Spot 4 4.5 22:35:11 25° SE 22:37:35 45° ENE 22:42:09 10° N
Cosmos 2322 Rocket 3.0 22:32:14 10° NNW 22:37:41 44° NE 22:41:25 19° ESE
USA 267 3.4 22:32:22 10° ENE 22:38:43 50° SE 22:45:01 10° SSW
Cosmos 2181 Rocket 3.9 22:34:39 22° S 22:38:53 85° E 22:45:11 10° N
BREEZE-M DEB (TANK) 3.5 22:38:35 10° WNW 22:41:26 74° N 22:51:10 10° E
Cosmos-2242 3.8 22:37:36 10° N 22:41:36 38° ENE 22:43:11 28° ESE
Cosmos 1932 4.4 22:35:34 10° SW 22:41:48 89° NW 22:48:11 10° NE
Cosmos 1821 Rocket 4.4 22:36:55 10° N 22:43:00 51° ENE 22:46:22 25° SE
Cosmos 1867 4.2 22:38:27 10° NW 22:43:36 43° WSW 22:46:12 26° S
Cosmos 2278 4.0 22:44:15 10° NNW 22:49:52 58° WSW 22:52:47 28° S
Cosmos 1602 Rocket 3.7 22:48:54 37° SSE 22:50:22 58° E 22:54:38 10° NNE
SAR-Lupe-4 3.9 22:50:13 10° N 22:53:45 60° WNW 22:55:19 30° SW
Cosmos 2333 Rocket 3.8 22:50:33 10° NNW 22:55:30 28° NE 23:00:27 10° ESE
Cosmos 2082 Rocket 3.3 22:56:35 10° SW 23:02:01 43° NW 23:07:28 10° NNE
ALOS 2 3.2 23:00:42 30° SE 23:02:26 47° ENE 23:06:39 10° N
Gbstr 26 Del rocket 3.8 23:05:11 33° SE 23:05:11 33° SE 23:09:09 10° ENE
Nadezhda 3 Rocket 4.2 23:02:13 30° SSE 23:05:09 55° E 23:11:09 10° NNE
Cosmos 1340 Rocket 4.2 23:05:53 22° ESE 23:06:23 23° E 23:09:33 10° NE
Cosmos 1606 3.0 23:06:36 10° N 23:10:24 54° ENE 23:11:18 42° SE
Cosmos 2360 Rocket 2.7 23:07:21 10° NNW 23:12:55 52° ENE 23:16:14 24° SE
Cosmos 1626 Rocket 4.0 23:10:58 27° SW 23:13:03 55° WNW 23:17:21 10° N
Cosmos 1633 2.4 23:12:29 57° SSW 23:13:07 82° W 23:16:36 10° N
USA 234 3.4 23:07:03 10° ESE 23:13:32 73° NNE 23:20:05 10° NW
BREEZE-M DEB (TANK) 3.8 23:01:48 10° WSW 23:14:05 84° SSE 23:17:42 10° ENE
Terra 4.2 23:19:41 10° WSW 23:21:53 13° W 23:24:04 10° WNW
FALCON 9 DEB 4.5 23:20:40 10° WNW 23:22:39 26° WSW 23:22:39 26° WSW
SJ 16-02 1.3 23:20:39 10° NNW 23:25:06 86° WSW 23:26:24 46° SSE
Cosmos 1825 Rocket 3.7 23:24:44 44° SSE 23:25:48 59° E 23:30:05 10° NNE
H-2A R/B 3.5 23:21:38 10° NNE 23:25:51 66° ESE 23:26:52 47° SSE
Cosmos 2058 3.1 23:28:03 46° SE 23:28:58 59° E 23:33:06 10° NNE
Cosmos 2237 4.2 23:26:27 10° NNW 23:32:13 80° WSW 23:34:40 36° SSE
USA 276 3.7 23:30:08 10° WNW 23:31:40 25° W 23:31:40 25° W
Meteor 2-20 4.5 23:30:58 29° SSW 23:34:15 76° W 23:40:22 10° N
Cosmos 2221 3.4 23:34:42 10° N 23:38:49 39° ENE 23:40:15 30° ESE
Meteor 2-2 Rocket 4.4 23:35:34 10° N 23:41:37 81° ENE 23:44:23 35° SSE
COSMOS 2428 4.2 23:37:05 10° NNW 23:42:11 32° NE 23:47:15 10° ESE
Cosmos 1980 Rocket 4.4 23:42:08 10° WNW 23:44:36 13° W 23:47:04 10° WSW
ISS -1.3 23:47:44 14° E 23:47:44 14° E 23:48:21 10° E
ADEOS Rocket 3.5 23:42:56 31° S 23:46:57 77° WSW 23:54:46 10° NNW
SL-16 R/B 2.7 23:41:38 10° NW 23:47:01 45° WSW 23:49:00 33° SSW
ERS-2 2.4 23:43:48 10° NNE 23:47:18 49° E 23:47:29 49° ESE
COSMOS 2487 4.2 23:49:36 19° E 23:49:36 19° E 23:51:13 10° NE
Cosmos 2219 Rocket 3.0 23:43:51 10° NNW 23:49:19 46° NE 23:53:12 19° ESE
SL-4 R/B 1.4 23:49:35 76° SSE 23:49:37 76° SSE 23:53:18 10° ENE
SL-27 R/B 3.8 23:53:43 26° E 23:53:43 26° E 23:56:04 10° NE
Cosmos 1934 Rocket 3.9 23:47:14 10° N 23:53:22 86° E 23:56:10 35° S
ATLAS 5 CENTAUR R/B 3.3 23:51:14 10° W 23:54:36 28° NW 23:58:25 10° NNE
